Location: Góry Miechowskie
(50.3599°N, 20.1803°E)
Time: 13:12:11
(UTC+00:00)

Cosmos 1437 Rocket - Pass Details

Date: 15 June 2024
Orbit: 477 x 530 km, 81.2° (Epoch: 15 July)

Event Time Altitude Azimuth Distance (km) Brightness Sun altitude
Exits shadow 00:19:29 - 151° (SSE) 1,841 5.1 -13.1°
Reaches altitude 10° 00:19:45 10° 149° (SSE) 1,744 5.0 -13.1°
Maximum altitude 00:22:58 26° 92° (E) 1,040 4.5 -12.9°
Drops below altitude 10° 00:26:09 10° 35° (NE) 1,730 6.8 -12.7°
Sets 00:28:30 0° 23° (NNE) 2,610 8.4 -12.5°
